Location: Newark
(22.3060°N, 114.2134°E)
Time: 05:42:38
(UTC+00:00)

Vanguard 1 Rocket - Pass Details

Date: 06 August 2021
Orbit: 650 x 4226 km, 34.3° (Epoch: 23 September)

Event Time Altitude Azimuth Distance (km) Brightness Sun altitude
Rises 21:16:59 0° 213° (SSW) 7,459 11.6 -9.6°
Reaches altitude 10° 21:21:57 10° 207° (SSW) 6,784 11.4 -8.5°
Maximum altitude 21:45:17 49° 139° (SE) 4,912 11.3 -3.5°
Drops below altitude 10° 22:06:54 10° 73° (ENE) 6,440 14.3 1.3°
Sets 22:11:19 0° 68° (ENE) 7,089 15.0 2.2°
